User: anonymous   Login
Location: Bay Shore Mobile Home Park
(38.5762°N, 75.0841°W)
Time: 05:39:00
(UTC+00:00)
Language:

Hubble Space Telescope - Orbit

View from above orbital plane
View from above orbital plane
View from above satellite
View from above satellite

Ground track
Ground track

The orbit is defined by the following mean orbital elements,

1 20580U          26039.77140969 +.00000000 +00000-0 +24335-3 0 00001
2 20580  28.4663 237.2056 0001773 143.0565 217.0153 15.29015568    04
Epoch (UTC): 08 February 2026 18:30:49
Eccentricity: 0.0001773
inclination: 28.4663°
perigee height: 478 km
apogee height: 480 km
right ascension of ascending node: 237.2056°
argument of perigee: 143.0565°
revolutions per day: 15.29015568
mean anomaly at epoch: 217.0153°

The dashed part of the orbit path shows where the satellite is in the earth's shadow,  

DLR